Вернуться в каталог

COSMOS 1018

АктивенВоенныеLEO
NORAD 10935·PAYLOAD·🇷🇺 Russia

Запущен Jun 7, 1978 с Plesetsk Cosmodrome

Loading…

Ближайшие Пролёты (ближайшие 24 часа)

TLE

СвежийSource: Space-Track

Эпоха: Sep 14, 2026, 13:55 UTC

1 10935U 78056F   26257.58027988 -.00000021  00000-0 -33951-4 0  9993
2 10935  74.0261 210.4092 0030049 288.8033 187.6948 12.49910922202495

Отслеживайте COSMOS 1018 в реальном времени с AllMySat

Download on the App Store